Home   Weather   Mildura   Past weeks

Flag for Australia Past Weather in Mildura, Victoria, Australia — Yesterday and Last 2 Weeks

Now
67 °F

Passing clouds.


Feels Like: 67 °F
Forecast: 48 / 62 °F
Wind: 9 mph from Northwest

Location: Mildura Airport

Current Time: May 1, 2017 at 12:44:31 pm

Latest Report: May 1, 2017 at 12:00 pm


Visibility: N/A

Pressure: 30.04 "Hg

Humidity: 52%

Dew Point: 48 °F

Location of MilduraLocation

Past Weather in Mildura — Graph

°F

Mildura Temperature Yesterday

Maximum temperature yesterday: 64 °F (at 1:00 pm)
Minimum temperature yesterday: 56 °F (at 10:00 pm)
Average temperature yesterday: 61 °F

High & Low Weather Summary for the Past Weeks

 TemperatureHumidityPressure
High89 °F (Apr 19, 3:00 pm)100% (Apr 20, 5:00 pm)30.35 "Hg (Apr 20, 5:00 pm)
Low43 °F (Apr 27, 7:00 am)20% (Apr 19, 3:00 pm)29.83 "Hg (Apr 25, 5:00 pm)
Average64 °F67%30.14 "Hg
* Reported Apr 16 11:00 am — May 1 11:00 am, Mildura, Weather by CustomWeather, © 2017

Note: Actual official high and low records may vary slightly from our data, if they occured in-between our weather recording intervals... More about our weather records

Advertising

Mildura Weather History for the Previous 24 Hours

Scroll right to see more
 ConditionsComfort  
Time TempWeatherWind HumidityBarometerVisibility
11:00 am
Mon, May 1
66 °FMild.8 mph53%30.06 "HgN/A
10:00 am62 °FCool.8 mph65%30.07 "HgN/A
9:00 am58 °FPartly sunny.5 mph79%30.08 "Hg22 mi
8:00 am53 °FCool.3 mph93%30.07 "HgN/A
7:00 am51 °FCool.5 mph94%30.06 "HgN/A
6:00 am51 °FCool.5 mph92%30.04 "HgN/A
5:00 am52 °FCool.3 mph86%30.04 "HgN/A
4:00 am52 °FCool.7 mph93%30.03 "HgN/A
3:00 am53 °FOvercast.6 mph89%30.06 "HgN/A
2:00 am54 °FCool.5 mph87%30.06 "HgN/A
1:00 am55 °FCool.5 mph85%30.06 "HgN/A
12:00 am56 °FOvercast.3 mph83%30.09 "HgN/A
11:00 pm
Sun, Apr 30
57 °FCool.6 mph80%30.09 "HgN/A
10:00 pm56 °FCool.5 mph81%30.10 "HgN/A
9:00 pm57 °FPassing clouds.No wind77%30.12 "HgN/A
8:00 pm60 °FCool.3 mph71%30.12 "HgN/A
7:00 pm62 °FCool.3 mph66%30.13 "HgN/A
6:00 pm63 °FOvercast.3 mph62%30.12 "HgN/A
5:00 pm63 °FMild.3 mph60%30.12 "HgN/A
4:00 pm64 °FMild.6 mph56%30.12 "HgN/A
3:00 pm64 °FOvercast.3 mph57%30.12 "HgN/A
2:00 pm64 °FMild.5 mph56%30.14 "HgN/A
1:00 pm64 °FMild.3 mph57%30.16 "HgN/A
12:00 pm64 °FOvercast.5 mph62%30.19 "HgN/A
Weather by CustomWeather, © 2017

See weather overviewHow to use our weather pages